[[{"header":{"parameterUnit":"m.s-1","parameterCategory":1,"la1":30.2991,"la2":30.254,"lo1":-89.0895,"lo2":-89.0444,"dy":0.0017,"dx":0.0017,"nx":28,"ny":28,"refTime":"2024-07-26T09:00:00:Z","depth":0,"parameterNumber":2,"parameterNumberName":"U-component_of_WINDS"},"data":[0,0,0,0,0,0,0,0,0,0,0,0,0,0,0,0,0,0,0,0,0,0,0,0,0,0,0,0,0,0,0,0,0,0,0,0,0,0,0,0,0,0,0,0,0,0,0,0,0,0,0,0,0,0,0,0,0,0,-1.3684,-1.3686,0,-1.3809,-1.3811,-1.3812,-1.3888,-1.3888,-1.3889,-1.3889,-1.4011,-1.4014,-1.4017,0,0,0,0,0,0,0,0,0,0,0,0,0,-1.3507,-1.351,-1.3684,-1.3686,-1.3687,-1.3809,-1.3811,-1.3812,-1.3888,-1.3888,-1.3889,-1.3889,-1.4011,-1.4014,-1.4017,0,0,0,0,0,0,0,0,0,0,0,0,0,-1.3603,-1.3511,-1.3684,-1.374,-1.3746,-1.3809,-1.3811,-1.3813,-1.3888,-1.3888,-1.3889,-1.3889,-1.4009,-1.4014,-1.4018,-1.4033,0,0,-1.4031,-1.4033,0,0,0,0,0,0,0,0,-1.3597,-1.3609,-1.373,-1.3736,-1.3743,-1.3834,-1.3793,-1.3886,-1.3887,-1.3834,-1.3889,-1.389,-1.3951,-1.3961,-1.3983,-1.4039,-1.4044,-1.4032,-1.4034,-1.4036,-1.4037,0,0,0,0,0,0,0,-1.3591,-1.3604,-1.3733,-1.3732,-1.374,-1.3757,-1.3772,-1.3811,-1.3888,-1.3838,-1.3844,-1.3858,-1.3955,-1.3978,-1.3986,-1.4046,-1.4031,-1.4035,-1.4038,-1.404,-1.4122,-1.4122,0,0,0,0,0,0,-1.3576,-1.3598,-1.373,-1.3737,-1.367,-1.376,-1.3776,-1.3804,-1.3887,-1.3901,-1.3858,-1.3861,-1.3971,-1.3981,-1.3991,-1.4015,-1.4036,-1.404,-1.4043,-1.4122,-1.4122,-1.4122,0,0,0,0,0,0,-1.3572,-1.3587,-1.3724,-1.367,-1.3688,-1.3762,-1.3793,-1.3806,-1.3829,-1.3902,-1.3916,-1.3867,-1.3971,-1.3984,-1.4023,-1.402,-1.4042,-1.4046,-1.4123,-1.4122,-1.4122,-1.4062,0,0,0,0,0,0,-1.3566,-1.3585,-1.3592,-1.3669,-1.3691,-1.3755,-1.3793,-1.3808,-1.3837,-1.3843,-1.3915,-1.3927,-1.3973,-1.4016,-1.4027,-1.4026,-1.4049,-1.4124,-1.4123,-1.4122,-1.4065,-1.4059,-1.4055,0,0,0,0,0,-1.356,-1.3569,-1.3592,-1.3608,-1.3702,-1.3755,-1.3767,-1.3821,-1.3837,-1.3844,-1.3891,-1.3925,-1.4019,-1.4019,-1.4032,-1.4033,-1.4124,-1.4123,-1.4122,-1.4067,-1.406,-1.4055,0,0,0,0,0,0,-1.3487,-1.358,-1.3607,-1.3641,-1.369,-1.3768,-1.3779,-1.3813,-1.3857,-1.386,-1.3924,-1.3939,-1.3971,-1.4006,-1.4005,-1.4053,-1.4075,-1.4077,-1.4028,-1.4023,-1.4018,-1.4009,-1.4053,0,0,0,0,0,-1.3476,-1.3513,-1.3591,-1.3614,-1.3637,-1.3704,-1.3729,-1.3767,-1.3819,-1.3839,-1.3889,-1.3937,-1.3977,-1.4002,-1.4043,-1.407,-1.4087,-1.4077,-1.4073,-1.4068,-1.4069,-1.4086,-1.4083,-1.4118,-1.4118,-1.4118,0,0,-1.3452,-1.3507,-1.3526,-1.3601,-1.3643,-1.3679,-1.372,-1.3756,-1.3783,-1.3844,-1.3884,-1.3922,-1.3979,-1.4012,-1.4029,-1.4042,-1.4063,-1.4067,-1.4063,-1.4066,-1.4085,-1.4081,-1.4078,-1.4118,-1.4118,-1.4118,0,0,-1.3426,-1.3471,-1.3496,-1.3538,-1.3602,-1.3647,-1.3652,-1.3726,-1.3754,-1.3796,-1.3842,-1.3875,-1.3943,-1.3982,-1.4011,-1.4002,-1.4035,-1.4014,-1.3988,-1.4005,-1.4002,-1.4,-1.3996,-1.3995,-1.4014,-1.4014,-1.4014,0,-1.3387,-1.3444,-1.3504,-1.3538,-1.3569,-1.3629,-1.3654,-1.3691,-1.3764,-1.3784,-1.3798,-1.3887,-1.3929,-1.3973,-1.3971,-1.3992,-1.4,-1.4005,-1.3998,-1.3996,-1.3995,-1.3993,-1.3991,-1.4011,-1.4011,-1.4012,-1.4012,0,-1.3393,-1.3432,-1.3444,-1.3516,-1.3549,-1.3578,-1.3641,-1.3667,-1.3702,-1.3745,-1.3786,-1.3841,-1.3894,-1.3907,-1.3941,-1.3956,-1.3962,-1.3986,-1.401,-1.3988,-1.3986,-1.3986,-1.4007,-1.4008,-1.4009,-1.4009,0,0,-1.3324,-1.343,-1.3433,-1.3467,-1.3543,-1.3573,-1.3605,-1.366,-1.3681,-1.373,-1.3757,-1.3815,-1.3838,-1.3871,-1.391,-1.3924,-1.3914,-1.3947,-1.3949,-1.3939,-1.3934,-1.3914,-1.3912,-1.3937,-1.3937,-1.3937,-1.3929,0,-1.3309,-1.337,-1.3426,-1.3466,-1.3503,-1.3561,-1.3589,-1.3637,-1.3678,-1.3715,-1.3759,-1.3799,-1.3827,-1.3848,-1.3865,-1.3912,-1.3914,-1.3913,-1.3962,-1.3963,-1.3945,-1.3912,-1.3892,-1.3881,-1.3929,-1.3929,-1.3929,0,-1.3299,-1.3348,-1.3392,-1.3466,-1.3484,-1.3508,-1.3563,-1.3597,-1.3654,-1.3682,-1.372,-1.3762,-1.3797,-1.3818,-1.3867,-1.3866,-1.3889,-1.3915,-1.3916,-1.3922,-1.3944,-1.3916,-1.3879,-1.3877,-1.3928,-1.3928,-1.3928,0,-1.3243,-1.332,-1.3357,-1.3384,-1.3471,-1.3487,-1.3523,-1.3581,-1.3611,-1.3658,-1.3678,-1.3729,-1.3756,-1.3793,-1.3847,-1.3857,-1.3891,-1.3916,-1.3915,-1.3913,-1.3918,-1.3917,-1.3883,-1.3934,-1.3934,-1.3934,-1.3934,0,-1.322,-1.3245,-1.3334,-1.3356,-1.3386,-1.345,-1.3477,-1.3519,-1.357,-1.3601,-1.3654,-1.3681,-1.3751,-1.3787,-1.3829,-1.3864,-1.3875,-1.3899,-1.391,-1.3894,-1.3891,-1.3909,-1.3911,-1.3934,-1.3934,-1.3934,-1.3934,0,-1.3163,-1.3223,-1.3267,-1.3347,-1.3368,-1.3386,-1.3454,-1.3477,-1.3522,-1.3561,-1.3574,-1.3643,-1.3688,-1.3746,-1.3809,-1.3838,-1.3867,-1.3884,-1.3848,-1.3854,-1.385,-1.3849,-1.3826,-1.3827,-1.3877,-1.3876,-1.3876,0,-1.3144,-1.3165,-1.3247,-1.3273,-1.3309,-1.3349,-1.338,-1.3444,-1.3474,-1.3541,-1.3556,-1.3606,-1.3649,-1.3718,-1.3774,-1.3822,-1.384,-1.3829,-1.3848,-1.3832,-1.384,-1.3838,-1.384,-1.3824,-1.3823,-1.3822,-1.3822,0,-1.3103,-1.3133,-1.3177,-1.3231,-1.3268,-1.3313,-1.3361,-1.3378,-1.3452,-1.3483,-1.3531,-1.3565,-1.363,-1.3678,-1.3735,-1.3771,-1.3808,-1.3816,-1.3818,-1.3802,-1.378,-1.3791,-1.3835,-1.3816,-1.3816,-1.3817,-1.3817,-1.3817,-1.3064,-1.3086,-1.3148,-1.3195,-1.3239,-1.3282,-1.3309,-1.3359,-1.34,-1.346,-1.3495,-1.3541,-1.3598,-1.3678,-1.3713,-1.375,-1.3764,-1.3767,-1.3768,-1.3767,-1.3762,-1.3775,-1.376,-1.3761,-1.3761,-1.3761,-1.3761,0,-1.3026,-1.307,-1.3113,-1.3179,-1.3216,-1.3251,-1.3306,-1.3334,-1.3375,-1.3426,-1.3469,-1.3524,-1.3572,-1.3632,-1.3683,-1.3701,-1.3719,-1.3712,-1.3711,-1.3719,-1.3747,-1.374,-1.3697,-1.3697,-1.3697,-1.3697,-1.3697,-1.3697,-1.3011,-1.305,-1.3087,-1.3147,-1.3191,-1.3238,-1.3267,-1.3307,-1.3349,-1.3409,-1.345,-1.3489,-1.3544,-1.36,-1.3645,-1.3662,-1.3678,-1.3666,-1.3687,-1.3711,-1.3717,-1.3722,-1.3716,-1.3669,-1.3669,-1.3656,-1.3656,-1.3656]},{"header":{"parameterUnit":"m.s-1","parameterCategory":1,"la1":30.2991,"la2":30.254,"lo1":-89.0895,"lo2":-89.0444,"dy":0.0017,"dx":0.0017,"nx":28,"ny":28,"refTime":"2024-07-26T09:00:00:Z","depth":0,"parameterNumber":3,"parameterNumberName":"V-component_of_WINDS"},"data":[0,0,0,0,0,0,0,0,0,0,0,0,0,0,0,0,0,0,0,0,0,0,0,0,0,0,0,0,0,0,0,0,0,0,0,0,0,0,0,0,0,0,0,0,0,0,0,0,0,0,0,0,0,0,0,0,0,0,1.5922,1.5923,0,1.5991,1.5992,1.5993,1.5961,1.5959,1.5957,1.5956,1.6025,1.6029,1.6032,0,0,0,0,0,0,0,0,0,0,0,0,0,1.576,1.5763,1.5922,1.5923,1.5924,1.5991,1.5992,1.5993,1.5961,1.5959,1.5957,1.5955,1.6024,1.6028,1.6033,0,0,0,0,0,0,0,0,0,0,0,0,0,1.583,1.5764,1.5922,1.5916,1.5916,1.5991,1.5992,1.5993,1.5961,1.5959,1.5956,1.5954,1.6023,1.6028,1.6033,1.6118,0,0,1.6049,1.6051,0,0,0,0,0,0,0,0,1.5826,1.5836,1.5916,1.5916,1.5917,1.5965,1.596,1.6035,1.5962,1.5944,1.5956,1.5953,1.6007,1.6014,1.6032,1.6121,1.6124,1.605,1.6053,1.6055,1.6056,0,0,0,0,0,0,0,1.5821,1.5832,1.5949,1.5917,1.5918,1.5909,1.5916,1.5974,1.5989,1.5946,1.5943,1.5952,1.6007,1.6027,1.6034,1.6125,1.6049,1.6054,1.6057,1.6059,1.6284,1.6286,0,0,0,0,0,0,1.5816,1.5829,1.5947,1.5951,1.5864,1.5914,1.5922,1.5952,1.5989,1.5992,1.5954,1.595,1.602,1.6028,1.6036,1.6136,1.6055,1.606,1.6063,1.6281,1.6284,1.6287,0,0,0,0,0,0,1.5813,1.5827,1.5944,1.5889,1.5904,1.592,1.5953,1.5955,1.5975,1.5995,1.5998,1.5972,1.6018,1.6029,1.6097,1.6138,1.6062,1.6067,1.6278,1.6282,1.6286,1.6338,0,0,0,0,0,0,1.5809,1.5826,1.5859,1.589,1.5907,1.6005,1.5956,1.5958,1.5984,1.598,1.6013,1.6016,1.6017,1.6089,1.6102,1.6144,1.6071,1.6274,1.628,1.6285,1.6332,1.6343,1.6352,0,0,0,0,0,1.5803,1.5871,1.5861,1.5876,1.5948,1.6008,1.6017,1.6017,1.5988,1.602,1.6033,1.6015,1.6131,1.6097,1.6111,1.6155,1.6271,1.6278,1.6284,1.6328,1.6341,1.6352,0,0,0,0,0,0,1.5845,1.5876,1.5865,1.5945,1.5974,1.6002,1.6044,1.6031,1.6068,1.6063,1.606,1.6068,1.6139,1.6153,1.6114,1.6237,1.6197,1.6206,1.6225,1.6238,1.6248,1.6243,1.6075,0,0,0,0,0,1.5864,1.591,1.5934,1.6003,1.6018,1.6028,1.6054,1.6051,1.6081,1.6093,1.6111,1.614,1.6182,1.6211,1.6252,1.6334,1.634,1.6371,1.6381,1.6389,1.6397,1.644,1.6454,1.6308,1.6308,1.6308,0,0,1.5903,1.5925,1.5955,1.6012,1.6034,1.6081,1.6039,1.6091,1.6125,1.6101,1.6166,1.618,1.6212,1.6287,1.6321,1.6302,1.6439,1.6397,1.6403,1.6407,1.6448,1.6462,1.6474,1.6313,1.6312,1.6311,0,0,1.5999,1.6021,1.608,1.6102,1.6136,1.6142,1.6156,1.6186,1.6194,1.6259,1.6241,1.6282,1.6356,1.6379,1.6401,1.6502,1.6486,1.6515,1.6568,1.661,1.6621,1.6631,1.6667,1.668,1.6523,1.6524,1.6524,0,1.6044,1.6114,1.6112,1.6165,1.619,1.6169,1.6228,1.6249,1.6295,1.6312,1.6289,1.6381,1.6401,1.6481,1.6505,1.6523,1.6538,1.6512,1.662,1.663,1.6639,1.6673,1.6687,1.6527,1.6526,1.6526,1.6526,0,1.6167,1.6216,1.6259,1.6303,1.6333,1.6388,1.6393,1.6423,1.6417,1.6425,1.6491,1.6514,1.6559,1.6577,1.6572,1.6656,1.6642,1.662,1.6579,1.6657,1.6688,1.6701,1.6532,1.653,1.6529,1.6529,0,0,1.6293,1.6333,1.6349,1.6368,1.6402,1.6439,1.6493,1.6536,1.6561,1.6592,1.6637,1.6699,1.6678,1.6702,1.6699,1.6736,1.6813,1.6709,1.6709,1.6727,1.6906,1.6923,1.6938,1.6803,1.6805,1.6807,1.6903,0,1.6391,1.6486,1.6484,1.6572,1.6616,1.6595,1.6642,1.6667,1.6676,1.6714,1.6723,1.6767,1.6736,1.675,1.6785,1.6797,1.6849,1.6789,1.6843,1.6845,1.6837,1.6954,1.6973,1.7062,1.6915,1.6917,1.6919,0,1.6518,1.6553,1.6645,1.6671,1.6689,1.6731,1.6769,1.6806,1.6834,1.6837,1.6863,1.6854,1.6907,1.6864,1.6937,1.6896,1.6918,1.6926,1.6929,1.6935,1.6887,1.6963,1.7091,1.7104,1.6938,1.6937,1.6935,0,1.6601,1.667,1.6734,1.675,1.6782,1.6812,1.6826,1.6851,1.6877,1.691,1.6926,1.6964,1.6986,1.7016,1.7016,1.6985,1.7089,1.7047,1.7093,1.7093,1.7116,1.7115,1.725,1.713,1.713,1.713,1.7129,0,1.671,1.6767,1.6771,1.681,1.6873,1.6869,1.6931,1.6942,1.6964,1.7004,1.6988,1.7026,1.7024,1.7063,1.7063,1.7122,1.7132,1.7136,1.7135,1.7138,1.7137,1.7152,1.7146,1.7133,1.7132,1.7132,1.7131,0,1.6814,1.6818,1.6886,1.691,1.6917,1.6962,1.6982,1.7018,1.7024,1.7075,1.7087,1.7096,1.714,1.7143,1.7194,1.7194,1.7266,1.7259,1.7257,1.7256,1.7302,1.7297,1.7451,1.7471,1.7338,1.7339,1.734,0,1.6884,1.6927,1.6955,1.698,1.6996,1.7038,1.7063,1.706,1.7087,1.712,1.7153,1.7195,1.7229,1.7299,1.731,1.7348,1.7342,1.7393,1.7348,1.7348,1.7342,1.734,1.7344,1.7402,1.7404,1.7405,1.7406,0,1.7007,1.7007,1.7044,1.7082,1.7112,1.7142,1.7169,1.7191,1.7191,1.7222,1.7266,1.7292,1.7343,1.7385,1.7421,1.7435,1.7421,1.742,1.7432,1.7435,1.7433,1.7434,1.7281,1.7417,1.7415,1.7415,1.7414,1.7414,1.7096,1.7133,1.7158,1.7199,1.7219,1.7244,1.7279,1.7289,1.7326,1.7367,1.7363,1.7412,1.7436,1.7484,1.75,1.7538,1.752,1.7539,1.7544,1.7548,1.7553,1.7426,1.7544,1.7544,1.7544,1.7544,1.7543,0,1.7219,1.7233,1.7271,1.7309,1.7341,1.7324,1.7352,1.738,1.7424,1.7447,1.748,1.753,1.757,1.7583,1.7621,1.7649,1.7643,1.7659,1.7657,1.766,1.7567,1.7552,1.7663,1.7663,1.7663,1.7663,1.7663,1.7663,1.7286,1.7347,1.7349,1.7419,1.7432,1.748,1.7498,1.7521,1.7539,1.7596,1.7629,1.7637,1.7656,1.7695,1.773,1.7733,1.7747,1.7766,1.7766,1.7679,1.7667,1.7656,1.7642,1.777,1.777,1.7857,1.7858,1.7858]}]]